Flag for Iran Weather past 2 weeks in Esfahãn, Iran

Now
66 °F

Sunny.


Feels Like: 66 °F
Forecast: 41 / 79 °F
Wind: 5 mph from Southeast

Location: Esfahan

Current Time: Apr 26, 2015 at 9:06:53 PM

Latest Report: Apr 26, 2015 at 8:30 PM


Visibility: 10 mi

Pressure: 30.15 "Hg

Humidity: 7%

Dew point: 1 °F

Location of EsfahãnLocation

Historic Weather in Esfahãn — Graph

°F

Esfahãn temperature yesterday

Maximum temperature yesterday: 81 °F (at 1:00 PM)
Minimum temperature yesterday: 55 °F (at 11:30 PM)
Average temperature yesterday: 70 °F

Past Weeks' High & Low Weather Summary

 TemperatureHumidityPressure
High86 °F (Apr 24, 2:30 PM)100% (Apr 18, 3:00 AM)30.30 "Hg (Apr 18, 3:00 AM)
Low30 °F (Apr 15, 6:30 AM)1% (Apr 25, 1:00 PM)29.89 "Hg (Apr 18, 4:00 PM)
Average63 °F27%30.07 "Hg
* Reported Apr 11 7:30 PM — Apr 26 8:00 PM, Esfahãn, Weather by CustomWeather, © 2015

Note: Actual official high and low records may vary slightly from our data, if they occured in-between our weather recording intervals... More about our weather records

Advertising

Esfahãn weather history for previous 24 hours

 ConditionsComfort  
Time TempWeatherWind HumidityBarometerVisibility
8:00 PM
Sun, Apr 26
68 °FSunny.No wind5%30.12 "Hg10 mi
7:30 PM70 °FSunny.5 mph5%30.12 "Hg10 mi
7:00 PM70 °FSunny.7 mph5%30.12 "Hg10 mi
6:30 PM72 °FSunny.7 mph6%30.15 "Hg10 mi
6:00 PM72 °FSunny.7 mph6%30.15 "Hg10 mi
5:30 PM72 °FSunny.5 mph6%30.15 "Hg10 mi
5:00 PM70 °FSunny.7 mph5%30.15 "Hg10 mi
4:30 PM70 °FSunny.5 mph7%30.15 "Hg10 mi
4:00 PM70 °FSunny.7 mph6%30.18 "Hg10 mi
3:30 PM70 °FSunny.12 mph6%30.18 "Hg10 mi
3:00 PM68 °FSunny.9 mph6%30.18 "Hg10 mi
2:30 PM70 °FSunny.7 mph6%30.21 "Hg10 mi
2:00 PM68 °FSunny.7 mph8%30.21 "Hg10 mi
1:30 PM66 °FSunny.7 mph9%30.24 "Hg10 mi
1:00 PM66 °FSunny.7 mph9%30.24 "Hg10 mi
12:30 PM64 °FSunny.5 mph10%30.27 "Hg10 mi
12:00 PM64 °FSunny.5 mph11%30.27 "Hg10 mi
11:30 AM63 °FSunny.7 mph12%30.27 "Hg10 mi
11:00 AM61 °FSunny.5 mph15%30.27 "Hg10 mi
10:30 AM61 °FSunny.5 mph17%30.30 "Hg10 mi
10:00 AM57 °FClear.5 mph18%30.30 "Hg4 mi
9:30 AM55 °FSunny.5 mph21%30.30 "Hg4 mi
9:00 AM54 °FSunny.5 mph22%30.27 "Hg4 mi
8:30 AM52 °FSunny.5 mph24%30.27 "Hg3 mi
8:00 AM48 °FSunny.5 mph25%30.27 "Hg1 mi
7:30 AM41 °FClear.7 mph28%30.27 "Hg1 mi
7:00 AM39 °FClear.7 mph30%30.24 "Hg2 mi
6:30 AM37 °FClear.5 mph33%30.24 "Hg4 mi
6:00 AM36 °FClear.5 mph32%30.21 "Hg4 mi
5:30 AM37 °FClear.5 mph28%30.21 "Hg10 mi
5:00 AM36 °FClear.7 mph27%30.21 "Hg10 mi
4:30 AM41 °FClear.5 mph26%30.18 "Hg10 mi
4:00 AM43 °FClear.7 mph24%30.18 "Hg10 mi
3:30 AM45 °FClear.7 mph21%30.18 "Hg10 mi
3:00 AM46 °FClear.12 mph20%30.15 "Hg10 mi
2:30 AM48 °FClear.12 mph18%30.15 "Hg10 mi
1:30 AM50 °FClear.9 mph17%30.15 "Hg5 mi
1:00 AM48 °FClear.9 mph18%30.15 "Hg5 mi
12:30 AM50 °FClear.12 mph17%30.15 "Hg10 mi
12:00 AM54 °FClear.14 mph16%30.15 "Hg10 mi
11:30 PM
Sat, Apr 25
55 °FClear.14 mph12%30.15 "Hg10 mi
11:00 PM57 °FClear.16 mph10%30.12 "Hg10 mi
10:30 PM59 °FClear.14 mph9%30.12 "Hg10 mi
10:00 PM61 °FClear.12 mph9%30.09 "Hg10 mi
9:30 PM61 °FClear.14 mph6%30.09 "Hg10 mi
9:00 PM63 °FSunny.16 mph6%30.07 "Hg10 mi
Weather by CustomWeather, © 2015

See weather overviewHow to use our weather pages